Location: Brompton
(51.4000°N, 0.5333°E)
Time: 09:30:47
(UTC+00:00)

CZ-4C R/B - Pass Details

Date: 11 May 2021
Orbit: 610 x 1392 km, 63.4° (Epoch: 12 June)

Event Time Altitude Azimuth Distance (km) Brightness Sun altitude
Rises 20:26:12 0° 314° (NW) 3,723 8.2 -7.0°
Reaches altitude 10° 20:28:37 10° 315° (NW) 2,877 6.8 -7.3°
Maximum altitude 20:35:38 90° 242° (WSW) 1,210 3.0 -8.1°
Enters shadow 20:43:47 11° 138° (SE) 3,322 4.6 -9.0°
